Powrót do katalogu

STARLINK-36484

AktywnyŁącznośćVLEO
NORAD 67404·PAYLOAD·🇺🇸 United States

Wystrzelony Jan 12, 2026 z Cape Canaveral Space Force Station

Loading…

Następne Przeloty (najbliższe 24 godziny)

TLE

ŚwieżeSource: CelesTrak SupGP

Epoka: Sep 14, 2026, 23:03 UTC

1 67404C 26005A   26257.96090278  .00024284  00000+0  87969-3 0  2575
2 67404  42.9991 248.7944 0001147 260.4036 199.0084 15.27562167    13

Śledź STARLINK-36484 w czasie rzeczywistym z AllMySat

Download on the App Store